Погода в Красновишерске

Россия / Пермский край     60°24′46″N   57°04′59″E
темп.,
°C
ветер,
м/с
пор.,
м/с
влажн.,
%
обл.,
%
осадки,
мм/ч
давл.,
гПа
погр.,
м
19 сентября, вс
вс1923:00+1ссз41198100 1.1 10111112
02:000ссз41093100 0.2 10121078
05:000ссз41093100 0.3 10131230
08:000сз41190100 0.1 10141218
11:00+1ссз51184100 0.3 10151312
14:00+3ссз51175100 0.1 10161391
17:00+3ссз51173100 0.2 10171461
20:00+3сз41073100 0.0 10181040
20 сентября, пн
пн2023:00+2ссз4108990 0.0 1020820
02:00+1ссз3109392 0.1 1021734
05:00+2ссз399181 0.1 1023664
08:00+2ссз388996 0.0 1025582
11:00+4с3571100 0.0 1027911
14:00+6с346597 0.0 1028995
17:00+6с346443 0.0 10291069
20:00+1сз11885 0.0 103010
21 сентября, вт
вт2123:00−1с22955 0.0 103135
02:00−2с229644 0.0 103123
05:00−2с119671 0.0 103119
08:00+2сз1578100 0.0 1030278
11:00+5ссз356163 0.0 1029957
14:00+7ссз345957 0.0 10281083
17:00+8ссз2565100 0.0 10271165
20:00+5сз2379100 0.0 102775
22 сентября, ср
ср2223:00+5ссз2383100 0.0 102763
02:00+5ссз1285100 0.0 102771
05:00+3ссз1294100 0.0 102774
08:00+4ссз1690100 0.0 1027346
11:00+7с2479100 0.0 1027552
14:00+7с2379100 0.1 1028593
17:00+8ссв2371100 0.1 1027654
20:00+6св1178100 0.0 102816
23 сентября, чт
чт2323:00+3ссв11912 0.0 102910
02:00+2всв11945 0.0 103010
05:00+2всв11954 0.0 103010
08:00+2в11935 0.0 103112
11:00+8ююв12685 0.0 1030421
14:00+11ю23592 0.0 1029879
17:00+11ю24644 0.0 1029941
20:00+5ююв119199 0.0 102910